Das Wetter in  D-61279 Heinzenberg / Taunus





Wetter Minimum- & Maximum-Werte im Juni 2008

Standort: Heinzenberg / Taunus - Höhe 297 m         8° 24' 1" Ost 50° 21' 51" Nord
(   3-stündige Aktualisierung    letzte Aktualisierung um 20:46 am 30.06.2008  )


Messgrösse

Minimum

Maximum

Durchschnitt

Temperatur West /
Luftfeuchte West
Anklicken für Monats-Diagramm

5,5 °C

06:20
17.06.2008

37 %

17:43
26.06.2008

30,6 °C

16:22
02.06.2008

95 %

07:55
05.06.2008

Temp

16,9 °C

Feuchte

71 %

Temperatur Ost /
Luftfeuchte Ost
Anklicken für Monats-Diagramm

4,9 °C

06:10
17.06.2008

--

--
--

30,9 °C

16:17
02.06.2008

--

--
--

16,9 °C

--

Luftdruck Anklicken für Monats-Diagramm

1007,2 hPa

16:22
02.06.2008

1022,6 hPa

02:14
10.06.2008

1015,9 hPa

Taupunkt

2,9 °C

04:40
17.06.2008

19,6 °C

17:14
22.06.2008

11,2 °C

Windchill
( gefühlte Temperatur )

0,0 °C

07:17
13.06.2008

30,5 °C

16:17
02.06.2008

15,7 °C

Windgeschwindigkeit /
Windrichtung
Anklicken für Monats-Diagramm

---

48,6 km/h / W

00:23
03.06.2008

7,0 km/h
W

Helligkeit /
Sonnenschein
Anklicken für Monats-Diagramm
Anklicken für Monats-Diagramm

Sonnenschein:

236:29 Stunden

Max: 13:30 Std am
09.06.2008

128 klux

12:37
20.06.2008

39 klux

Solarstrahlung Anklicken für Monats-Diagramm

---

876 W/m²

12:37
20.06.2008

289 W/m²

Regenmenge
    Juni 2008
Anklicken für Monats-Diagramm

Insgesamt 40,9 l/m²

in 36:49 Stunden
an 18 Tagen

10,6 l/m²

13:54
04.06.2008

Gesamtmenge

40,9 l/m²

Regen-Tage
    Juni 2008
Anklicken für Monats-Diagramm

>   0 mm/Tag

>   2 mm/Tag

>   5 mm/Tag

> 10 mm/Tag

> 20 mm/Tag

18 Tage     
4 Tage     
4 Tage     
  1 Tag     
0 Tage     

Eisige Tage Juni 2008 / 2007

Tmin ≤ -10°C     

0 Tage

/

0 Tage

Eistage Juni 2008 / 2007

Tmax <     0°C     

0 Tage

/

0 Tage

Frosttage Juni 2008 / 2007

Tmin ≤     0°C     

0 Tage

/

0 Tage

Kalte Tage Juni 2008 / 2007

Tmax <   10°C     

0 Tage

/

0 Tage

Warme Tage Juni 2008 / 2007

Tmax ≥   20°C     

25 Tage

/

23 Tage

Sommertage Juni 2008 / 2007

Tmax ≥   25°C     

11 Tage

/

11 Tage

Heisse Tage Juni 2008 / 2007

Tmax ≥   30°C     

  1 Tag

/

2 Tage


Monatsdiagramm Juni 2008

Die Kurven zeigen den Durchschnittswert des jeweiligen Tages an


Wetter-Monatsübersicht Juni 2008
Datum
  Temperatur
   Luftdruck
   Wind
  Regen
   Luftfeuchte
   Helligkeit

Sonnen-
schein

Ø
Temp.

Min.
Temp.

Max.
Temp.

Ø
Luftdruck

Min.
Luftdruck

Max.
Luftdruck

Ø-Geschw.
Haupt-Richtg.

Max.
Wind

Menge /
Dauer

Ø
Feuchte

Min.
Feuchte

Max.
Feuchte

Ø
Helligkeit

Max.
Helligkeit

1.
Juni
18,1 °C10,9 °C
06:21
26,0 °C
16:36
1015,2 hPa1013,1 hPa
19:21
1016,8 hPa
06:21
3,0 km/h
W-SW
21,1 km/h
15:36  
---
76 %51 %
17:06
93 %
08:11
40,4 klux107,0 klux
12:46
8:35 Std 
2.
Juni
21,2 °C14,0 °C
06:07
30,6 °C
16:22
1011,1 hPa1007,2 hPa
16:22
1015,1 hPa
01:27
4,0 km/h
O-SO
22,0 km/h
16:32  
8,8 l/m²
1:56 Stunden
71 %44 %
16:27
89 %
07:57
44 klux98 klux
13:17
9:35 Std 
3.
Juni
18,1 °C14,8 °C
00:53
23,7 °C
17:03
1012,2 hPa1009,7 hPa
00:03
1014,1 hPa
23:59
8,9 km/h
W
48,6 km/h
00:23  
7,9 l/m²
1:40 Stunden
80 %57 %
17:43
93 %
03:48
37,5 klux114,0 klux
11:58
5:20 Std 
4.
Juni
16,0 °C12,6 °C
05:09
21,8 °C
13:34
1014,4 hPa1013,4 hPa
13:34
1015,2 hPa
08:09
2,9 km/h
W
16,7 km/h
13:19  
10,6 l/m²
4:36 Stunden
87 %70 %
13:39
93 %
17:29
24 klux103 klux
12:39
1:30 Std 
5.
Juni
17,8 °C14,5 °C
05:15
24,5 °C
15:55
1012,6 hPa1010,0 hPa
17:30
1015,2 hPa
00:35
2,1 km/h
N-NO
20,1 km/h
14:45  
0,2 l/m²
1:10 Stunden
80 %50 %
18:15
95 %
07:55
41 klux100 klux
13:35
6:20 Std 
6.
Juni
18,4 °C11,8 °C
06:30
25,3 °C
14:00
1011,8 hPa1009,9 hPa
17:45
1013,5 hPa
06:30
2,4 km/h
SO
24,0 km/h
11:50  
---
68 %47 %
18:15
88 %
07:05
45 klux104 klux
13:15
10:15 Std 
7.
Juni
15,6 °C10,3 °C
05:56
24,0 °C
15:36
1014,4 hPa1012,1 hPa
15:46
1017,5 hPa
23:47
3,4 km/h
W-NW
28,1 km/h
16:01  
8,8 l/m²
4:10 Stunden
79 %58 %
13:41
90 %
22:57
37 klux109 klux
12:06
7:50 Std 
8.
Juni
17,6 °C13,1 °C
03:37
25,4 °C
16:17
1018,2 hPa1017,1 hPa
16:17
1020,4 hPa
23:58
2,8 km/h
NW
26,6 km/h
16:27  
0,2 l/m²
25 Minuten
79 %51 %
16:17
94 %
09:12
40 klux96 klux
14:42
7:35 Std 
9.
Juni
19,2 °C10,9 °C
06:03
28,3 °C
17:08
1020,5 hPa1018,9 hPa
17:08
1022,4 hPa
23:59
2,4 km/h
NO
18,0 km/h
16:23  
---
66 %40 %
17:28
90 %
08:23
48,3 klux91,6 klux
14:18
13:30 Std 
10.
Juni
19,4 °C11,2 °C
06:09
27,8 °C
16:24
1019,5 hPa1015,9 hPa
17:44
1022,6 hPa
02:14
5,1 km/h
NW
24,8 km/h
15:44  
---
64 %42 %
17:14
86 %
07:59
47,4 klux92,4 klux
14:09
13:15 Std 
11.
Juni
15,5 °C12,9 °C
07:05
18,8 °C
14:50
1018,1 hPa1016,2 hPa
19:50
1019,6 hPa
07:25
10,7 km/h
NW
29,6 km/h
17:50  
---
68 %56 %
14:00
83 %
06:20
38,7 klux124,0 klux
13:45
6:54 Std 
12.
Juni
11,7 °C8,0 °C
23:42
16,0 °C
12:36
1013,5 hPa1007,4 hPa
20:56
1017,8 hPa
02:51
5,3 km/h
NW
27,7 km/h
22:06  
0,6 l/m²
7:25 Stunden
75 %57 %
12:36
89 %
19:46
27 klux99 klux
11:26
5:35 Std 
13.
Juni
10,9 °C7,5 °C
06:02
16,6 °C
17:12
1014,7 hPa1011,9 hPa
02:12
1017,0 hPa
23:52
12,0 km/h
W-NW
33,5 km/h
14:57  
0,2 l/m²
1:06 Stunden
79 %61 %
17:12
92 %
06:47
31,0 klux117,0 klux
13:32
4:49 Std 
14.
Juni
10,8 °C6,1 °C
06:17
16,5 °C
14:12
1015,8 hPa1014,1 hPa
16:57
1017,4 hPa
06:37
6,2 km/h
W
29,1 km/h
18:42  
0,8 l/m²
2:20 Stunden
77 %55 %
14:22
90 %
08:17
31 klux114 klux
13:42
4:40 Std 
15.
Juni
11,5 °C6,3 °C
05:58
17,5 °C
17:13
1011,3 hPa1008,0 hPa
18:58
1014,9 hPa
01:48
4,4 km/h
W-SW
31,0 km/h
15:03  
0,6 l/m²
2:11 Stunden
80 %62 %
13:53
93 %
09:48
36 klux116 klux
12:23
4:40 Std 
16.
Juni
13,4 °C8,7 °C
05:59
20,4 °C
17:54
1009,9 hPa1008,4 hPa
17:54
1012,8 hPa
23:55
4,1 km/h
NW
22,9 km/h
13:19  
0,2 l/m²
5 Minuten
71 %43 %
16:59
90 %
07:49
43 klux110 klux
13:14
8:55 Std 
17.
Juni
13,7 °C5,5 °C
06:20
21,6 °C
15:35
1013,0 hPa1011,3 hPa
15:35
1014,4 hPa
23:56
1,6 km/h
SO
15,6 km/h
17:45  
---
66 %44 %
15:35
87 %
08:00
40 klux106 klux
12:20
8:05 Std 
18.
Juni
16,6 °C10,1 °C
06:31
23,7 °C
16:31
1015,7 hPa1014,3 hPa
18:21
1017,2 hPa
08:56
5,7 km/h
W
26,1 km/h
17:01  
---
62 %40 %
16:01
86 %
08:01
44 klux108 klux
14:01
10:20 Std 
19.
Juni
17,5 °C11,0 °C
04:31
22,7 °C
15:36
1013,7 hPa1012,2 hPa
15:41
1016,1 hPa
23:57
15,4 km/h
W
43,3 km/h
19:26  
0,3 l/m²
1:00 Stunden
61 %47 %
13:01
76 %
03:36
36 klux121 klux
13:01
5:00 Std 
20.
Juni
15,8 °C9,5 °C
05:57
21,9 °C
17:32
1019,1 hPa1016,1 hPa
00:02
1020,8 hPa
08:42
13,7 km/h
W
38,3 km/h
12:02  
0,3 l/m²
2:25 Stunden
68 %50 %
18:27
88 %
07:22
43 klux128 klux
12:37
7:20 Std 
21.
Juni
18,4 °C13,8 °C
05:03
24,6 °C
17:52
1020,1 hPa1018,4 hPa
18:43
1021,4 hPa
08:18
2,4 km/h
NW
16,5 km/h
12:18  
---
71 %60 %
16:23
82 %
07:03
34 klux118 klux
13:53
5:20 Std 
22.
Juni
21,8 °C12,8 °C
06:34
29,4 °C
17:49
1015,0 hPa1011,5 hPa
17:49
1019,2 hPa
01:09
12,9 km/h
W
33,1 km/h
17:54  
0,5 l/m²
30 Minuten
68 %49 %
19:49
89 %
07:54
43 klux100 klux
13:04
9:35 Std 
23.
Juni
19,2 °C15,0 °C
07:35
25,4 °C
17:25
1017,7 hPa1013,6 hPa
00:05
1020,0 hPa
12:00
12,1 km/h
W
28,6 km/h
00:00  
0,2 l/m²
55 Minuten
59 %39 %
17:30
84 %
02:25
49 klux90 klux
13:35
12:25 Std 
24.
Juni
19,3 °C11,2 °C
06:16
28,5 °C
18:36
1017,4 hPa1013,7 hPa
18:51
1019,8 hPa
06:16
3,2 km/h
SO
19,6 km/h
13:06  
---
20 Minuten
61 %42 %
16:26
79 %
06:31
46,8 klux99,8 klux
11:41
11:24 Std 
25.
Juni
18,7 °C15,4 °C
23:53
23,7 °C
12:47
1014,7 hPa1012,1 hPa
12:47
1019,3 hPa
23:53
3,0 km/h
W
18,1 km/h
19:47  
0,9 l/m²
4:25 Stunden
81 %68 %
12:07
92 %
19:12
20 klux89 klux
11:22
2:06 Std 
26.
Juni
16,9 °C9,9 °C
06:33
24,3 °C
17:18
1020,2 hPa1017,5 hPa
20:03
1022,6 hPa
08:53
7,5 km/h
NW
26,6 km/h
16:08  
---
10 Minuten
68 %37 %
17:43
93 %
08:13
50,0 klux102,0 klux
12:33
13:25 Std 
27.
Juni
16,1 °C11,2 °C
05:23
22,6 °C
16:48
1018,7 hPa1017,6 hPa
07:08
1020,3 hPa
23:59
15,5 km/h
W
42,9 km/h
14:13  
---
68 %50 %
16:53
83 %
07:08
30 klux119 klux
12:03
3:21 Std 
28.
Juni
18,4 °C13,9 °C
04:24
24,1 °C
16:44
1019,4 hPa1018,3 hPa
16:44
1020,5 hPa
03:34
18,3 km/h
W-SW
40,1 km/h
13:59  
---
72 %56 %
17:29
84 %
05:49
33 klux120 klux
12:44
5:05 Std 
29.
Juni
19,7 °C12,5 °C
05:20
27,2 °C
17:00
1017,9 hPa1014,9 hPa
18:40
1019,7 hPa
05:20
13,7 km/h
W
38,7 km/h
12:00  
---
64 %41 %
17:40
88 %
07:40
50 klux106 klux
11:45
13:25 Std 
30.
Juni
18,8 °C12,0 °C
06:26
25,9 °C
16:36
1020,0 hPa1018,0 hPa
00:01
1021,4 hPa
08:31
5,6 km/h
NW
23,1 km/h
14:26  
---
62 %41 %
16:41
83 %
07:21
44 klux107 klux
14:26
10:20 Std 



Juni
2008

Temperatur

  

Luftdruck

  

Wind

  

Regen

  

Luftfeuchte

  

Helligkeit

Sonnen-
schein

Ø

Min

Max

Ø

Min

Max

Ø

Max

Max

Ø

Min

Max

Ø

Max

Max

16,9 °C

5,5 °C

06:20 Uhr
17.06.2008

30,6 °C

16:22 Uhr
02.06.2008

1015,9 hPa

1007,2 hPa

16:22 Uhr
02.06.2008

1022,6 hPa

02:14 Uhr
10.06.2008

7,0 km/h

W

48,6 km/h

00:23 Uhr
03.06.2008

10,6 l/m²

4:36 Stunden
04.06.2008

71 %

37 %

17:43 Uhr
26.06.2008

95 %

07:55 Uhr
05.06.2008

39 klux

128,0 klux

12:37 Uhr
20.06.2008

13:30 Std

am
09.06.2008

Gesamt

Gesamt

40,9 l/m²

18 Tage
36:49 h

236:29 Std


Wetter-Diagramme Juni 2008     Heinzenberg / Taunus   
TemperaturLuftfeuchte
SolarstrahlungLuftdruck
HelligkeitSonnenschein
RegenmengeRegendauer
Wind-GeschwindigkeitWind-Richtung